Regional Weather Roundup
Issued by NWS

Home | Current Version | Previous Version | Text Only | Print | Product List | Glossary Off
Versions: 1 2 3 4 5 6 7 8 9 10 11 12 13 14 15 16 17 18 19 20 21 22 23 24 25 26 27 28 29 30 31 32 33 34 35 36 37 38 39 40 41 42 43 44 45 46 47 48 49 50

631
ASUS45 KBOI 041410
RWRID

IDAHO REGIONAL WEATHER ROUNDUP
NATIONAL WEATHER SERVICE BOISE ID
700 AM MST SUN DEC 04 2016

NOTE: "FAIR" INDICATES FEW OR NO CLOUDS BELOW 12000 FEET
WITH NO SIGNIFICANT WEATHER AND/OR OBSTRUCTIONS TO VISIBILITY

IDZ012-014-041500-
SOUTHWEST IDAHO


CITY           SKY/WX    TMP DP  RH WIND       PRES   REMARKS
BOISE          CLOUDY    41  30  65 SE10      30.02S
CALDWELL       CLOUDY    38  28  67 CALM      30.01F
MOUNTAIN HOME  CLOUDY    35  29  78 E17       30.01F WCI  25
$$

IDZ016-017-041500-
SOUTHCENTRAL IDAHO


CITY           SKY/WX    TMP DP  RH WIND       PRES   REMARKS
BURLEY         CLOUDY    35  19  52 SW14      30.05F WCI  26
JEROME         CLOUDY    33  21  61 SE7       30.06F WCI  27
TWIN FALLS     CLOUDY    37  16  42 S12       30.05F WCI  29
$$

IDZ019>023-041500-
SOUTHEAST IDAHO


CITY           SKY/WX    TMP DP  RH WIND       PRES   REMARKS
IDAHO FALLS    CLOUDY    31  22  69 SW13      30.02F WCI  21
POCATELLO      CLOUDY    35  19  52 S17G29    30.05S WCI  25
REXBURG        CLOUDY    30  23  75 SW8       30.00F WCI  22
$$

IDZ006-010-011-018-031-032-041500-
CENTRAL IDAHO MOUNTAINS


CITY           SKY/WX    TMP DP  RH WIND       PRES   REMARKS
MCCALL         LGT SNOW  30  27  88 SE8       29.90F FOG     WCI  22
HAILEY         MOCLDY    23  19  86 NW3       30.04F
STANLEY          N/A     29  26  89 SE7       29.92F WCI  22
SALMON         CLOUDY    27  19  74 N3        29.91F
CHALLIS        CLOUDY    26  20  77 CALM      29.90F
$$

IDZ002-004-006-007-026-041500-
NORTHERN IDAHO


CITY           SKY/WX    TMP DP  RH WIND       PRES   REMARKS
LEWISTON       CLOUDY    44  33  65 S18G25    29.86F
LOWELL           N/A     33  31  92 CALM      29.95F
COEUR D`ALENE  LGT RAIN  38  33  82 SW23G29   29.76F WCI  27
MULLAN PASS    SNOW      24  23  96 SW8G20    29.65F VSB 1/2 WCI  15
$$




USA.gov is the U.S. government's official web portal to all federal, state and local government web resources and services.